Lexington Weather

Lexington, Massachusetts, USA

71°F
9/22/2021 2:07pm 
  • Lexington Conditions: Light rain, Mist, Overcast
  • Temperature: 71.2°F / 21.8°CColder 3.6°F than last hour.
  • Dew Point: 68.7°FIncreased 0.2°Fsince last hour.
  • Relative Humidity: 92%Increased 11.0% since last hour.
  • Wind: Wind from WNW WNW 2 mph, 10-min avg: 3 mph, gust: 11 mph
  • Barometer: 30.09 inFalling 0.02  inHg/hr Falling Slowly
  • Visibility: 2 miles
  • Rain Today: 0.00 in
  •   

Regional Weather Roundup
for Boston / Norton, MA

        
000
ASUS41 KBOX 211004
RWRBOX

REGIONAL WEATHER ROUNDUP
NATIONAL WEATHER SERVICE BOSTON/NORTON MA
600 AM EDT TUE SEP 21 2021

NOTE:  "FAIR" INDICATES FEW OR NO CLOUDS BELOW 12,000 FEET WITH NO 
SIGNIFICANT WEATHER AND/OR OBSTRUCTIONS TO VISIBILITY.

MAZALL-211100-
EASTERN MASSACHUSETTS
  
CITY           SKY/WX    TMP DP  RH WIND       PRES   REMARKS
BOSTON         PTCLDY    59  53  80 CALM      30.40S                  
BEVERLY        CLEAR     49  48  97 CALM      30.40S                  
LAWRENCE       FOG       51  50  96 CALM      30.43S VSB 1/2          
BEDFORD        FOG       47  47 100 CALM      30.40S VSB 1/4          
BLUE HILL      NOT AVBL                                               
NORWOOD        MOCLDY    44  42  93 CALM      30.40S                  
MARSHFIELD     MOCLDY    50  48  93 CALM      30.40R                  
PLYMOUTH       PTCLDY    50  49  96 CALM      30.40R                  
TAUNTON        CLEAR     44  42  93 CALM      30.40S                  
NEW BEDFORD    PTCLDY    47  46  97 CALM      30.39R                  
$$

MAZALL-211100-
CAPE COD AND THE ISLANDS
  
CITY           SKY/WX    TMP DP  RH WIND       PRES   REMARKS
FALMOUTH       PTCLDY    55  55 100 NE3       30.39S                  
HYANNIS        CLEAR     53  52  96 CALM      30.38S                  
CHATHAM        CLEAR     63  60  90 E6        30.40S                  
PROVINCETOWN   CLEAR     56  56 100 E6        30.41S                  
NANTUCKET      CLEAR     61  58  90 E8        30.38S                  
MARTHAS VNYRD  PTCLDY    49  49 100 CALM      30.38S                  
$$
 
MAZALL-211100-
CENTRAL AND WESTERN MASSACHUSETTS
  
CITY           SKY/WX    TMP DP  RH WIND       PRES   REMARKS
WORCESTER      CLEAR     55  52  89 CALM      30.40S                  
FITCHBURG      CLEAR     48  46  93 CALM      30.41S                  
ORANGE         PTCLDY    48  47  96 CALM      30.41S FOG              
SPRINGFIELD    CLEAR     48  48 100 CALM      30.37F                  
WESTFIELD      PTCLDY    51  51 100 NW3       30.39R                  
NORTH ADAMS    PTCLDY    52  50  93 W6        30.38R                  
PITTSFIELD     CLEAR     51  50  96 CALM      30.37S                  
$$
 
RIZALL-211100-
RHODE ISLAND
  
CITY           SKY/WX    TMP DP  RH WIND       PRES   REMARKS
PROVIDENCE     PTCLDY    53  51  93 N3        30.40S                  
NEWPORT        CLEAR     54  54 100 CALM      30.38S                  
SMITHFIELD     CLEAR     48  48 100 NE3       30.40S                  
WESTERLY       CLEAR     48  48 100 N5        30.38S                  
$$
 
CTZALL-211100-
CONNECTICUT
  
CITY           SKY/WX    TMP DP  RH WIND       PRES   REMARKS
BRADLEY INTL   PTCLDY    49  49 100 NW3       30.38S                  
HARTFORD       CLEAR     53  50  89 CALM      30.38R                  
BRIDGEPORT     PTCLDY    58  55  90 N6        30.36R                  
DANBURY        PTCLDY    52  48  86 CALM      30.38S FOG              
GROTON         CLEAR     51  50  96 N5        30.37S                  
NEW HAVEN      CLEAR     54  52  93 NE5       30.36S                  
CHESTER        FAIR      52  52 100 CALM      30.38R                  
MERIDEN        CLEAR     52  49  89 CALM      30.37S                  
WILLIMANTIC    MOCLDY    49  48  97 CALM      30.40S                  
OXFORD         PTCLDY    53  52  96 E3        30.38S                  
$$

MEZ002-015-021-024-NHZ003-005-008-011-012-014-VTZ005-008-211100-
NORTHERN NEW ENGLAND
  
CITY           SKY/WX    TMP DP  RH WIND       PRES   REMARKS
PORTLAND ME    PTCLDY    47  47 100 W5        30.43R                  
BANGOR ME      FOG       53  53 100 S3        30.43S VSB 1/4          
CONCORD NH     FOG       48  47  96 CALM      30.42R VSB 1/4          
MANCHESTER NH  FOG       52  50  93 N3        30.40S VSB 1/8          
NASHUA NH      CLEAR     49  49 100 CALM      30.42S                  
PORTSMOUTH NH  PTCLDY    49  48  96 CALM      30.43R                  
JAFFREY NH     MOCLDY    48  48 100 CALM      30.41S FOG              
KEENE NH       CLEAR     50  50 100 CALM      30.41S                  
BURLINGTON VT  CLEAR     62  55  77 S13       30.32S                  
MT. WASHINGTON NOT AVBL                                               
$$

NYZ052-076-211100-
EASTERN NEW YORK
  
CITY           SKY/WX    TMP DP  RH WIND       PRES   REMARKS
ALBANY         PTCLDY    54  54 100 CALM      30.36S                  
NEW YORK CITY  MOCLDY    64  55  72 SE6       30.33S                  
$$
 
ANZALL-211100-
MARINE OBSERVATIONS
  
STATION/POSITION TIME  TEMP    WIND        PRES    VSBY  WAVE
                       AIR SEA DIR/SP/G                  HT/PER
                 (UTC) (F)     (DEG/KT/KT) (MB)    (MI)  (FT/S)
BOSTON BUOY      0940      64  120/  8/ 10 1029.9S
BUZZARDS BAY     0900          140/  8/  8 1029.8R
NANTUCKET SOUND  0940   65 72  110/ 10/ 12 1028.9R
MASS BAY-STELLWA 0904   63     170/  8/ 10 1029.4S  1 7/8
ISLE OF SHOALS   0900   62     170/  9/  9 1029.1S
S OF BLOCK IS    0926      70                N/A           3/ 8
$$

......................KEY.........................
  SKY/WX - SKY CONDITION/PRESENT WEATHER
  TMP    - TEMPERATURE IN FAHRENHEIT
  DWPT   - DEWPOINT IN FAHRENHEIT
  RH     - RELATIVE HUMIDITY IN PERCENT
  WIND   - DIRECTION AND SPEED IN MPH
  PRES   - MEAN SEA LEVEL PRESSURE IN INCHES OF HG
  WCI    - WIND CHILL INDEX
  VSB    - VISIBILITY IN MILES
  HX     - HEAT INDEX
  TC     - TEMPERATURE IN CELSIUS
  VRB    - VARIABLE WIND DIRECTION
  N/A    - NOT AVAILABLE
  
      

Other recent Regional Weather Roundups

Wed Sep 22, 1:04pm

Wed Sep 22, 12:05pm

Wed Sep 22, 11:04am

Wed Sep 22, 10:04am

Wed Sep 22, 9:04am

Wed Sep 22, 8:04am

Wed Sep 22, 7:04am

Wed Sep 22, 6:04am

Wed Sep 22, 5:04am

Wed Sep 22, 4:04am

Wed Sep 22, 3:04am

Wed Sep 22, 2:04am

Wed Sep 22, 1:04am

Wed Sep 22, 12:04am

Tue Sep 21, 11:04pm

Tue Sep 21, 10:04pm

Tue Sep 21, 9:04pm

Tue Sep 21, 8:04pm

Tue Sep 21, 7:04pm

Tue Sep 21, 6:04pm

Tue Sep 21, 5:04pm

Tue Sep 21, 4:04pm

Tue Sep 21, 3:04pm

Tue Sep 21, 2:04pm

Tue Sep 21, 1:04pm

Tue Sep 21, 12:04pm

Tue Sep 21, 11:04am

Tue Sep 21, 10:04am

Tue Sep 21, 9:04am

Tue Sep 21, 8:04am

Tue Sep 21, 7:04am

Tue Sep 21, 5:04am

Tue Sep 21, 4:04am

Tue Sep 21, 3:04am

Tue Sep 21, 2:04am

Tue Sep 21, 1:04am

Tue Sep 21, 12:04am

Mon Sep 20, 11:04pm

Mon Sep 20, 10:04pm

Mon Sep 20, 9:04pm

Mon Sep 20, 8:04pm

Mon Sep 20, 7:04pm

Mon Sep 20, 6:04pm

Mon Sep 20, 5:04pm

Mon Sep 20, 4:04pm

Mon Sep 20, 3:04pm

Mon Sep 20, 2:04pm

Mon Sep 20, 1:04pm

Mon Sep 20, 12:04pm

Mon Sep 20, 11:04am

Mon Sep 20, 10:04am

Mon Sep 20, 9:04am

Mon Sep 20, 7:04am

Mon Sep 20, 6:04am

Mon Sep 20, 5:04am

Mon Sep 20, 4:04am

Mon Sep 20, 3:04am

Mon Sep 20, 2:04am

Mon Sep 20, 1:04am

Mon Sep 20, 12:04am

Sun Sep 19, 11:04pm

Sun Sep 19, 10:04pm

Sun Sep 19, 9:04pm

Sun Sep 19, 8:04pm

Sun Sep 19, 7:04pm

Sun Sep 19, 6:04pm

Sun Sep 19, 5:04pm

Sun Sep 19, 4:04pm

Sun Sep 19, 3:04pm

Sun Sep 19, 2:05pm

Sun Sep 19, 1:04pm

Sun Sep 19, 12:04pm

Sun Sep 19, 11:04am

Sun Sep 19, 10:05am

Sun Sep 19, 9:04am

Sun Sep 19, 8:04am

Sun Sep 19, 7:04am

Sun Sep 19, 6:04am

Sun Sep 19, 5:04am

Sun Sep 19, 4:04am

Sun Sep 19, 3:04am

Sun Sep 19, 2:04am

Sun Sep 19, 1:04am

Sun Sep 19, 12:04am

Sat Sep 18, 11:05pm

Sat Sep 18, 10:04pm

Sat Sep 18, 9:04pm

Sat Sep 18, 8:04pm

Sat Sep 18, 7:04pm

Sat Sep 18, 6:04pm

Sat Sep 18, 5:04pm

Sat Sep 18, 4:04pm

Sat Sep 18, 3:04pm

Sat Sep 18, 2:04pm

Sat Sep 18, 1:04pm

Sat Sep 18, 12:04pm

Sat Sep 18, 11:04am

Sat Sep 18, 10:04am

Sat Sep 18, 9:04am

Sat Sep 18, 8:04am

Sat Sep 18, 7:04am

Sat Sep 18, 6:04am

Sat Sep 18, 5:04am

Sat Sep 18, 4:04am

Sat Sep 18, 3:04am

Sat Sep 18, 2:04am

Sat Sep 18, 1:04am

Sat Sep 18, 12:04am

Fri Sep 17, 11:04pm

Fri Sep 17, 10:04pm

Fri Sep 17, 9:04pm

Fri Sep 17, 8:04pm

Fri Sep 17, 7:04pm

Fri Sep 17, 6:04pm

Fri Sep 17, 5:04pm

Fri Sep 17, 4:04pm

Fri Sep 17, 3:04pm

Fri Sep 17, 2:04pm

Fri Sep 17, 1:04pm

Fri Sep 17, 12:05pm

Fri Sep 17, 11:04am

Fri Sep 17, 10:04am

Fri Sep 17, 9:04am

Fri Sep 17, 8:04am

Fri Sep 17, 7:04am

Fri Sep 17, 6:04am

Fri Sep 17, 5:04am

Fri Sep 17, 4:04am

Fri Sep 17, 3:04am

Fri Sep 17, 2:04am

Fri Sep 17, 1:04am

Fri Sep 17, 12:04am

Thu Sep 16, 11:04pm

Thu Sep 16, 10:04pm

Thu Sep 16, 9:04pm

Thu Sep 16, 8:04pm

Thu Sep 16, 7:04pm

Thu Sep 16, 6:04pm

Thu Sep 16, 5:04pm

Thu Sep 16, 4:04pm

Thu Sep 16, 3:04pm

Thu Sep 16, 2:04pm

Thu Sep 16, 1:05pm

Thu Sep 16, 12:04pm

Thu Sep 16, 11:05am

Thu Sep 16, 10:05am

Thu Sep 16, 9:04am

Thu Sep 16, 8:04am

Thu Sep 16, 7:04am

Thu Sep 16, 6:04am

Thu Sep 16, 5:04am

Thu Sep 16, 4:04am

Thu Sep 16, 3:04am

Thu Sep 16, 2:04am

Thu Sep 16, 1:04am

Thu Sep 16, 12:04am

Wed Sep 15, 11:04pm

Wed Sep 15, 10:04pm

Wed Sep 15, 9:04pm

Wed Sep 15, 8:04pm

Wed Sep 15, 7:04pm

Wed Sep 15, 6:04pm

Wed Sep 15, 5:05pm

Wed Sep 15, 4:04pm

Wed Sep 15, 3:04pm

Wed Sep 15, 2:04pm

Meta data:

ID: 1c972a1d-ef91-4c7c-b026-e57e79185602
Link: https://api.weather.gov/products/1c972a1d-ef91-4c7c-b026-e57e79185602